Phillips Army Air Field Aberdeen Proving Grounds(Aberdeen) US
ICAO: KAPG
IATA: APG
Category: Medium
Scheduled Services: No

Elevation: 57 ft
TransAlt. 18000 ft.

Airport Communications:
POTOMAC APP/DEP:126.75
ATIS:108.4
GND:121.9
TWR:126.15

KAPG Zoom In..

Runways:

(A) RW 04 length 7997 ft width 200 ft
---- / hdg 38

(B) RW 08 length 4849 ft width 149 ft
---- / hdg 82

(C) RW 17 length 5004 ft width 149 ft
---- / hdg 171

(D) RW 22 length 7997 ft width 200 ft
---- / hdg 218

(E) RW 26 length 4849 ft width 149 ft
---- / hdg 262

(F) RW 35 length 5004 ft width 149 ft
---- / hdg 351

Location; KAPG
Day. 20 / Time. 09.58 Zulu
* Altimeter: 30.23
* Temperature: 01° c. 33.8°f.
* Wind from: 260° Speed 03 kn.
Dewpoint: -05° c.
Visibility: 10 Statute Miles.
Clouds: Scattered 5000 ft.

KAPG 200958Z 26003KT 10SM SCT050 01/M05 A3023 RMK AO2A SLP240 T00111049 $


Wind From 260°
Speed 03 kn.

  YouTube Music Video
 
jpsmedia.com for Web Design  worldairports.se 2018   terms of use